This demonstration page uses our WeatherBlox Daily Observations layout. Learn more.

Left ArrowRight Arrow

Hourly Observations for August 19, 2022

Temp ( °F °C ) Dew Point ( °F °C ) Humidity (%) Winds ( mph kmh ) Pressure ( in mb ) Visibility ( mi km ) Precip ( " mm )
12:53 am 00:53 Clear 69 20.6 62 16.7 78 78 N 7 11 29.91 1013 10 16 0.00 0.00
1:53 am 01:53 Mostly Cloudy 68 20 61 16.1 78 78 N 5 7 29.90 1013 10 16 0.00 0.00
2:53 am 02:53 Mostly Clear 67 19.4 61 16.1 81 81 NE 3 6 29.89 1012 10 16 0.00 0.00
3:53 am 03:53 Partly Cloudy 67 19.4 60 15.6 79 79 Calm 29.88 1012 10 16 0.00 0.00
4:53 am 04:53 Mostly Cloudy 66 18.9 61 16.1 84 84 Calm 29.88 1012 10 16 0.00 0.00
5:53 am 05:53 Mostly Cloudy 65 18.3 61 16.1 87 87 NNE 6 9 29.88 1012 10 16 0.00 0.00
6:53 am 06:53 Mostly Cloudy 65 18.3 61 16.1 87 87 Calm 29.87 1012 10 16 0.00 0.00
7:53 am 07:53 Mostly Cloudy 68 20 62 16.7 81 81 Calm 29.87 1012 10 16 0.00 0.00
8:28 am 08:28 Sunny with Mist and Fog 67 19.4 63 17.2 87 87 NE 3 6 29.87 1011 2 3 0.00 0.00
11:53 am 11:53 Mostly Sunny 76 24.4 65 18.3 69 69 NW 3 6 29.93 1014 10 16 0.00 0.00
12:53 pm 12:53 Mostly Sunny 81 27.2 60 15.6 49 49 NNW 5 7 29.91 1013 10 16 0.00 0.00
1:53 pm 13:53 Sunny 83 28.3 61 16.1 48 48 NW 5 7 29.90 1013 10 16 0.00 0.00
2:53 pm 14:53 Mostly Sunny 84 28.9 61 16.1 46 46 NNW 9 15 29.88 1012 10 16 0.00 0.00
3:53 pm 15:53 Mostly Sunny 85 29.4 55 12.8 36 36 NNW 14 22 29.87 1012 10 16 0.00 0.00
4:53 pm 16:53 Sunny 85 29.4 55 12.8 36 36 NNW 8 13 29.86 1011 10 16 0.00 0.00
5:53 pm 17:53 Mostly Sunny 81 27.2 56 13.3 42 42 N 8 13 29.87 1012 10 16 0.00 0.00
6:53 pm 18:53 Sunny 83 28.3 54 12.2 37 37 N 6 9 29.87 1012 10 16 0.00 0.00
7:53 pm 19:53 Sunny 76 24.4 58 14.4 54 54 NNW 5 7 29.88 1012 10 16 0.00 0.00
8:53 pm 20:53 Partly Cloudy 72 22.2 58 14.4 61 61 N 6 9 29.90 1013 10 16 0.00 0.00
9:53 pm 21:53 Clear 66 18.9 57 13.9 73 73 N 5 7 29.93 1014 10 16 0.00 0.00
10:53 pm 22:53 Clear 65 18.3 56 13.3 73 73 N 5 7 29.97 1015 10 16 0.00 0.00
11:53 pm 23:53 Clear 63 17.2 55 12.8 75 75 Calm 29.97 1015 10 16 0.00 0.00

Powered by AerisWeather